BCS2212 EDDP-EGLL

Flight info

Callsign BCS2212
Flight time 1h 26m
Altitude 34000
Route PENEM1E PENEM Y233 EMBOX L986 POVEL DCT ROBEG DCT ABNED L980 LOGAN
Aircraft A306/H-SDE1FGHIRWXYZ/HB1

Departure

Time 2026-05-05 20:09
Airport Leipzig/Halle Airport (EDDP)

Arrival

Time 2026-05-05 21:35
Airport London Heathrow Airport (EGLL)
Time Latitude Longitude Altitude Speed Heading
2026-05-05 19:42 51.40739 12.23420 470 ft 0 kts 85°
2026-05-05 19:56 51.40739 12.23412 470 ft 3 kts 85°
2026-05-05 19:56 51.40737 12.23382 497 ft 3 kts 85°
2026-05-05 19:57 51.40736 12.23352 462 ft 2 kts 91°
2026-05-05 19:57 51.40734 12.23331 469 ft 3 kts 53°
2026-05-05 19:57 51.40713 12.23311 466 ft 3 kts 353°
2026-05-05 19:57 51.40712 12.23311 466 ft 0 kts 353°
2026-05-05 20:02 51.40718 12.23310 469 ft 4 kts 354°
2026-05-05 20:02 51.40769 12.23302 469 ft 7 kts 354°
2026-05-05 20:02 51.40801 12.23298 466 ft 8 kts 355°
2026-05-05 20:03 51.40876 12.23289 470 ft 12 kts 356°
2026-05-05 20:03 51.40927 12.23284 468 ft 11 kts 356°
2026-05-05 20:03 51.41023 12.23231 470 ft 11 kts 295°
2026-05-05 20:03 51.41023 12.23067 469 ft 18 kts 266°
2026-05-05 20:04 51.41017 12.22939 468 ft 17 kts 265°
2026-05-05 20:04 51.41008 12.22744 466 ft 17 kts 265°
2026-05-05 20:04 51.40999 12.22553 464 ft 20 kts 266°
2026-05-05 20:04 51.41001 12.22361 463 ft 12 kts 306°
2026-05-05 20:05 51.41062 12.22266 462 ft 15 kts 295°
2026-05-05 20:05 51.41064 12.22055 461 ft 22 kts 266°
2026-05-05 20:05 51.41054 12.21813 459 ft 21 kts 265°
2026-05-05 20:05 51.41039 12.21538 456 ft 27 kts 265°
2026-05-05 20:06 51.41026 12.21241 454 ft 26 kts 265°
2026-05-05 20:06 51.41013 12.20974 451 ft 13 kts 266°
2026-05-05 20:06 51.41007 12.20836 450 ft 12 kts 266°
2026-05-05 20:06 51.41001 12.20699 449 ft 12 kts 266°
2026-05-05 20:07 51.40994 12.20553 447 ft 15 kts 271°
2026-05-05 20:07 51.41060 12.20493 446 ft 11 kts
2026-05-05 20:07 51.41132 12.20521 446 ft 10 kts 21°
2026-05-05 20:07 51.41162 12.20587 447 ft 7 kts 69°
2026-05-05 20:08 51.41173 12.20711 447 ft 0 kts 85°
2026-05-05 20:08 51.41173 12.20714 447 ft 5 kts 85°
2026-05-05 20:08 51.41193 12.21115 452 ft 73 kts 87°
2026-05-05 20:08 51.41248 12.22331 463 ft 144 kts 85°
2026-05-05 20:09 51.41343 12.24264 761 ft 193 kts 83°
2026-05-05 20:09 51.41436 12.26414 1444 ft 182 kts 84°
2026-05-05 20:09 51.41518 12.28299 1683 ft 162 kts 83°
2026-05-05 20:09 51.41608 12.30171 2008 ft 181 kts 83°
2026-05-05 20:10 51.41716 12.32370 2345 ft 215 kts 85°
2026-05-05 20:10 51.41834 12.34900 2894 ft 237 kts 85°
2026-05-05 20:10 51.41998 12.37580 3703 ft 247 kts 79°
2026-05-05 20:10 51.42636 12.40167 4542 ft 256 kts 56°
2026-05-05 20:11 51.43990 12.42060 5420 ft 266 kts 28°
2026-05-05 20:11 51.45796 12.42687 6322 ft 276 kts 359°
2026-05-05 20:11 51.47703 12.42129 7225 ft 282 kts 347°
2026-05-05 20:11 51.49604 12.41289 8186 ft 286 kts 345°
2026-05-05 20:12 51.51533 12.40424 9135 ft 290 kts 345°
2026-05-05 20:12 51.53486 12.39563 10046 ft 295 kts 345°
2026-05-05 20:12 51.55452 12.38316 10459 ft 315 kts 328°
2026-05-05 20:12 51.57073 12.35819 10759 ft 335 kts 302°
2026-05-05 20:13 51.58054 12.32341 11074 ft 351 kts 288°
2026-05-05 20:13 51.58852 12.28534 11406 ft 366 kts 287°
2026-05-05 20:13 51.59661 12.24597 11941 ft 374 kts 287°
2026-05-05 20:13 51.60737 12.20748 12538 ft 382 kts 300°
2026-05-05 20:14 51.62516 12.17531 13169 ft 391 kts 319°
2026-05-05 20:14 51.64763 12.15025 13794 ft 396 kts 326°
2026-05-05 20:14 51.67105 12.12664 14442 ft 397 kts 327°
2026-05-05 20:14 51.69450 12.10295 15071 ft 399 kts 325°
2026-05-05 20:15 51.71645 12.07544 15619 ft 401 kts 316°
2026-05-05 20:15 51.73658 12.04405 16207 ft 404 kts 312°
2026-05-05 20:15 51.75578 12.01074 16775 ft 407 kts 310°
2026-05-05 20:15 51.77465 11.97644 17365 ft 410 kts 309°
2026-05-05 20:16 51.79354 11.94168 17975 ft 414 kts 309°
2026-05-05 20:16 51.81266 11.90666 18493 ft 417 kts 309°
2026-05-05 20:16 51.83206 11.87151 19004 ft 420 kts 309°
2026-05-05 20:16 51.85062 11.83508 19511 ft 421 kts 304°
2026-05-05 20:17 51.86804 11.79694 20008 ft 422 kts 303°
2026-05-05 20:17 51.88511 11.75809 20514 ft 424 kts 302°
2026-05-05 20:17 51.90202 11.71863 20894 ft 429 kts 302°
2026-05-05 20:17 51.91889 11.67875 21376 ft 431 kts 301°
2026-05-05 20:18 51.93583 11.63857 21861 ft 432 kts 301°
2026-05-05 20:18 51.95283 11.59826 22313 ft 435 kts 301°
2026-05-05 20:18 51.96989 11.55783 22843 ft 434 kts 301°
2026-05-05 20:18 51.98637 11.51877 23275 ft 436 kts 301°
2026-05-05 20:19 52.00380 11.47744 23634 ft 439 kts 301°
2026-05-05 20:19 52.02108 11.43641 23949 ft 442 kts 301°
2026-05-05 20:19 52.03817 11.39484 24269 ft 443 kts 298°
2026-05-05 20:19 52.05253 11.35069 24574 ft 442 kts 290°
2026-05-05 20:20 52.06289 11.30372 24876 ft 442 kts 283°
2026-05-05 20:20 52.07094 11.25554 25182 ft 443 kts 281°
2026-05-05 20:20 52.07798 11.20742 25500 ft 444 kts 279°
2026-05-05 20:20 52.08463 11.15833 25812 ft 445 kts 278°
2026-05-05 20:21 52.09111 11.10904 26106 ft 447 kts 278°
2026-05-05 20:21 52.09769 11.05876 26390 ft 449 kts 278°
2026-05-05 20:21 52.10416 11.00965 26673 ft 451 kts 278°
2026-05-05 20:21 52.11079 10.95968 26950 ft 453 kts 278°
2026-05-05 20:22 52.11748 10.90955 27209 ft 454 kts 278°
2026-05-05 20:22 52.12420 10.85920 27487 ft 456 kts 278°
2026-05-05 20:22 52.12943 10.80819 27646 ft 458 kts 274°
2026-05-05 20:22 52.13378 10.75602 27900 ft 460 kts 274°
2026-05-05 20:23 52.13770 10.70505 28132 ft 461 kts 273°
2026-05-05 20:23 52.14149 10.65345 28371 ft 462 kts 273°
2026-05-05 20:23 52.14522 10.60144 28680 ft 462 kts 273°
2026-05-05 20:23 52.14890 10.54957 29031 ft 461 kts 272°
2026-05-05 20:24 52.15256 10.49780 29386 ft 460 kts 272°
2026-05-05 20:24 52.15621 10.44610 29725 ft 459 kts 272°
2026-05-05 20:24 52.15984 10.39447 30044 ft 459 kts 272°
2026-05-05 20:24 52.16347 10.34281 30279 ft 459 kts 272°
2026-05-05 20:25 52.16707 10.29109 30507 ft 460 kts 272°
2026-05-05 20:25 52.17066 10.23941 30819 ft 459 kts 272°
2026-05-05 20:25 52.17422 10.18781 31123 ft 458 kts 272°
2026-05-05 20:25 52.17776 10.13635 31419 ft 457 kts 272°
2026-05-05 20:26 52.18127 10.08486 31711 ft 456 kts 271°
2026-05-05 20:26 52.18474 10.03354 31999 ft 456 kts 271°
2026-05-05 20:26 52.18818 9.98228 32300 ft 455 kts 271°
2026-05-05 20:26 52.19012 9.93378 32544 ft 454 kts 268°
2026-05-05 20:27 52.19242 9.88253 32916 ft 454 kts 271°
2026-05-05 20:27 52.19599 9.83147 33263 ft 453 kts 272°
2026-05-05 20:27 52.19999 9.78058 33574 ft 452 kts 272°
2026-05-05 20:27 52.20396 9.72972 33823 ft 452 kts 272°
2026-05-05 20:28 52.20773 9.67928 33838 ft 442 kts 271°
2026-05-05 20:28 52.21448 9.58124 33841 ft 431 kts 270°
2026-05-05 20:29 52.22061 9.48415 33846 ft 430 kts 270°
2026-05-05 20:29 52.22657 9.38700 33844 ft 431 kts 270°
2026-05-05 20:30 52.23224 9.28981 33849 ft 429 kts 267°
2026-05-05 20:30 52.23095 9.19332 33856 ft 424 kts 262°
2026-05-05 20:31 52.22753 9.09733 33857 ft 424 kts 261°
2026-05-05 20:31 52.22364 9.00138 33860 ft 424 kts 261°
2026-05-05 20:32 52.21974 8.90546 33869 ft 424 kts 261°
2026-05-05 20:32 52.21584 8.80950 33855 ft 424 kts 261°
2026-05-05 20:33 52.21189 8.71375 33856 ft 423 kts 261°
2026-05-05 20:33 52.20786 8.61792 33847 ft 424 kts 261°
2026-05-05 20:34 52.20372 8.52147 33854 ft 429 kts 261°
2026-05-05 20:34 52.19948 8.42437 33846 ft 430 kts 260°
2026-05-05 20:35 52.19518 8.32717 33844 ft 430 kts 261°
2026-05-05 20:35 52.19078 8.23003 33851 ft 430 kts 261°
2026-05-05 20:36 52.18635 8.13358 33857 ft 430 kts 261°
2026-05-05 20:36 52.18179 8.03655 33850 ft 429 kts 261°
2026-05-05 20:37 52.17714 7.93948 33844 ft 430 kts 260°
2026-05-05 20:37 52.17242 7.84247 33852 ft 430 kts 260°
2026-05-05 20:38 52.16762 7.74534 33859 ft 430 kts 260°
2026-05-05 20:38 52.16275 7.64837 33844 ft 430 kts 260°
2026-05-05 20:39 52.15779 7.55136 33860 ft 430 kts 260°
2026-05-05 20:39 52.15275 7.45443 33858 ft 430 kts 260°
2026-05-05 20:40 52.14764 7.35742 33854 ft 430 kts 260°
2026-05-05 20:40 52.14243 7.26032 33860 ft 431 kts 260°
2026-05-05 20:41 52.13720 7.16402 33855 ft 431 kts 260°
2026-05-05 20:41 52.13184 7.06699 33858 ft 431 kts 260°
2026-05-05 20:42 52.12639 6.96983 33861 ft 431 kts 260°
2026-05-05 20:42 52.12087 6.87280 33879 ft 431 kts 260°
2026-05-05 20:43 52.11526 6.77579 33869 ft 430 kts 259°
2026-05-05 20:43 52.10959 6.67899 33874 ft 430 kts 259°
2026-05-05 20:44 52.10388 6.58295 33871 ft 430 kts 259°
2026-05-05 20:44 52.09803 6.48597 33876 ft 432 kts 259°
2026-05-05 20:45 52.08907 6.33982 33879 ft 433 kts 259°
2026-05-05 20:45 52.08301 6.24244 33882 ft 432 kts 259°
2026-05-05 20:46 52.07687 6.14532 33883 ft 432 kts 259°
2026-05-05 20:46 52.07064 6.04811 33884 ft 432 kts 259°
2026-05-05 20:47 52.06434 5.95097 33885 ft 432 kts 259°
2026-05-05 20:47 52.05796 5.85381 33886 ft 432 kts 259°
2026-05-05 20:48 52.05149 5.75667 33884 ft 432 kts 259°
2026-05-05 20:48 52.04494 5.65960 33885 ft 432 kts 259°
2026-05-05 20:49 52.03945 5.57901 33895 ft 432 kts 259°
2026-05-05 20:49 52.03166 5.46623 33897 ft 432 kts 259°
2026-05-05 20:50 52.02599 5.38501 33912 ft 432 kts 259°
2026-05-05 20:50 52.01915 5.28812 33900 ft 431 kts 259°
2026-05-05 20:51 52.01228 5.19196 33905 ft 431 kts 259°
2026-05-05 20:51 52.00529 5.09542 33904 ft 431 kts 259°
2026-05-05 20:52 51.99823 4.99885 33903 ft 431 kts 259°
2026-05-05 20:52 51.99109 4.90240 33892 ft 431 kts 259°
2026-05-05 20:53 51.98388 4.80604 33899 ft 430 kts 259°
2026-05-05 20:53 51.97663 4.71014 33901 ft 429 kts 259°
2026-05-05 20:54 51.96927 4.61400 33911 ft 429 kts 259°
2026-05-05 20:54 51.96183 4.51787 33911 ft 429 kts 259°
2026-05-05 20:55 51.95441 4.42306 33915 ft 432 kts 259°
2026-05-05 20:55 51.94681 4.32696 33912 ft 433 kts 259°
2026-05-05 20:56 51.93908 4.23007 33912 ft 434 kts 259°
2026-05-05 20:56 51.93127 4.13313 33914 ft 434 kts 258°
2026-05-05 20:57 51.92337 4.03627 33910 ft 434 kts 258°
2026-05-05 20:57 51.91540 3.93947 33909 ft 434 kts 258°
2026-05-05 20:58 51.90735 3.84276 33911 ft 433 kts 258°
2026-05-05 20:58 51.89925 3.74633 33911 ft 432 kts 258°
2026-05-05 20:59 51.89107 3.65007 33911 ft 432 kts 258°
2026-05-05 20:59 51.88281 3.55383 33911 ft 432 kts 258°
2026-05-05 21:00 51.87447 3.45762 33922 ft 432 kts 258°
2026-05-05 21:00 51.86606 3.36149 33923 ft 431 kts 258°
2026-05-05 21:01 51.85760 3.26565 33928 ft 430 kts 258°
2026-05-05 21:01 51.84914 3.16987 33929 ft 430 kts 259°
2026-05-05 21:02 51.84235 3.07367 33936 ft 431 kts 261°
2026-05-05 21:02 51.83642 2.97718 33936 ft 431 kts 261°
2026-05-05 21:03 51.83028 2.88079 33938 ft 431 kts 260°
2026-05-05 21:03 51.82390 2.78455 33936 ft 431 kts 260°
2026-05-05 21:04 51.81732 2.68765 33942 ft 439 kts 260°
2026-05-05 21:04 51.81049 2.58872 33939 ft 445 kts 260°
2026-05-05 21:05 51.80358 2.48926 33941 ft 446 kts 260°
2026-05-05 21:05 51.79659 2.38980 33943 ft 446 kts 260°
2026-05-05 21:06 51.79309 2.34036 33528 ft 439 kts 260°
2026-05-05 21:06 51.78962 2.29160 32953 ft 434 kts 260°
2026-05-05 21:06 51.78616 2.24347 32371 ft 429 kts 260°
2026-05-05 21:06 51.78305 2.19576 31819 ft 425 kts 261°
2026-05-05 21:07 51.78025 2.14850 31286 ft 421 kts 262°
2026-05-05 21:07 51.77751 2.10166 30754 ft 418 kts 262°
2026-05-05 21:07 51.77477 2.05507 30202 ft 415 kts 262°
2026-05-05 21:07 51.77203 2.00891 29617 ft 412 kts 261°
2026-05-05 21:08 51.76929 1.96317 29092 ft 407 kts 262°
2026-05-05 21:08 51.76657 1.91807 28600 ft 402 kts 262°
2026-05-05 21:08 51.76387 1.87345 28083 ft 397 kts 262°
2026-05-05 21:08 51.76116 1.82929 27565 ft 394 kts 262°
2026-05-05 21:09 51.75846 1.78546 27057 ft 391 kts 263°
2026-05-05 21:09 51.75576 1.74187 26562 ft 389 kts 262°
2026-05-05 21:09 51.75307 1.69862 26060 ft 386 kts 263°
2026-05-05 21:09 51.75037 1.65557 25548 ft 385 kts 263°
2026-05-05 21:10 51.74766 1.61267 25110 ft 382 kts 263°
2026-05-05 21:10 51.74500 1.57071 24561 ft 382 kts 264°
2026-05-05 21:10 51.74223 1.52722 23913 ft 386 kts 264°
2026-05-05 21:10 51.73950 1.48474 23294 ft 387 kts 264°
2026-05-05 21:11 51.73668 1.44099 22644 ft 386 kts 264°
2026-05-05 21:11 51.73394 1.39863 22085 ft 384 kts 264°
2026-05-05 21:11 51.73116 1.35598 21518 ft 381 kts 264°
2026-05-05 21:11 51.72837 1.31352 20953 ft 379 kts 264°
2026-05-05 21:12 51.72559 1.27133 20388 ft 377 kts 264°
2026-05-05 21:12 51.72281 1.22940 19819 ft 376 kts 264°
2026-05-05 21:12 51.72002 1.18767 19300 ft 372 kts 264°
2026-05-05 21:12 51.71725 1.14625 18808 ft 369 kts 264°
2026-05-05 21:13 51.71447 1.10505 18272 ft 368 kts 264°
2026-05-05 21:13 51.71171 1.06432 17641 ft 366 kts 264°
2026-05-05 21:13 51.70895 1.02385 17168 ft 360 kts 264°
2026-05-05 21:13 51.70622 0.98401 16533 ft 354 kts 264°
2026-05-05 21:14 51.70352 0.94493 16077 ft 344 kts 264°
2026-05-05 21:14 51.70090 0.90718 15576 ft 337 kts 264°
2026-05-05 21:14 51.69831 0.86987 15130 ft 333 kts 264°
2026-05-05 21:14 51.69573 0.83300 14719 ft 329 kts 264°
2026-05-05 21:15 51.69319 0.79664 14320 ft 325 kts 264°
2026-05-05 21:15 51.69066 0.76070 13913 ft 321 kts 264°
2026-05-05 21:15 51.68815 0.72520 13482 ft 317 kts 264°
2026-05-05 21:15 51.68565 0.69010 13077 ft 314 kts 264°
2026-05-05 21:16 51.68317 0.65526 12700 ft 313 kts 264°
2026-05-05 21:16 51.68068 0.62054 12312 ft 312 kts 264°
2026-05-05 21:16 51.67818 0.58590 11921 ft 310 kts 264°
2026-05-05 21:16 51.67569 0.55146 11539 ft 309 kts 264°
2026-05-05 21:17 51.67320 0.51711 11151 ft 308 kts 264°
2026-05-05 21:17 51.67073 0.48331 10913 ft 299 kts 264°
2026-05-05 21:17 51.66833 0.45052 10547 ft 295 kts 265°
2026-05-05 21:17 51.66587 0.41767 10143 ft 293 kts 265°
2026-05-05 21:18 51.66347 0.38503 9724 ft 292 kts 265°
2026-05-05 21:18 51.66109 0.35264 9300 ft 290 kts 265°
2026-05-05 21:18 51.65871 0.32055 8929 ft 287 kts 265°
2026-05-05 21:18 51.65636 0.28895 8578 ft 283 kts 265°
2026-05-05 21:19 51.65402 0.25759 8229 ft 281 kts 265°
2026-05-05 21:19 51.65168 0.22639 7880 ft 280 kts 265°
2026-05-05 21:19 51.64936 0.19571 7654 ft 272 kts 265°
2026-05-05 21:19 51.64710 0.16569 7368 ft 268 kts 265°
2026-05-05 21:20 51.64522 0.13602 7074 ft 264 kts 267°
2026-05-05 21:20 51.64360 0.10736 6981 ft 253 kts 267°
2026-05-05 21:20 51.64207 0.07985 6978 ft 243 kts 267°
2026-05-05 21:20 51.64053 0.05275 6989 ft 243 kts 267°
2026-05-05 21:21 51.63903 0.02560 6988 ft 243 kts 267°
2026-05-05 21:21 51.63756 -0.00135 6872 ft 243 kts 267°
2026-05-05 21:21 51.63607 -0.02825 6652 ft 242 kts 267°
2026-05-05 21:21 51.63489 -0.04937 6492 ft 239 kts 267°
2026-05-05 21:22 51.63343 -0.07552 6236 ft 240 kts 267°
2026-05-05 21:22 51.63193 -0.10224 6060 ft 239 kts 266°
2026-05-05 21:22 51.63042 -0.12899 6036 ft 240 kts 267°
2026-05-05 21:22 51.62891 -0.15536 6040 ft 240 kts 266°
2026-05-05 21:23 51.62738 -0.18210 6042 ft 240 kts 266°
2026-05-05 21:23 51.62585 -0.20881 6055 ft 240 kts 267°
2026-05-05 21:23 51.62430 -0.23560 6051 ft 240 kts 267°
2026-05-05 21:23 51.62276 -0.26218 6082 ft 240 kts 266°
2026-05-05 21:24 51.62121 -0.28894 6086 ft 240 kts 266°
2026-05-05 21:24 51.61965 -0.31569 6082 ft 240 kts 266°
2026-05-05 21:24 51.61808 -0.34246 6002 ft 240 kts 266°
2026-05-05 21:24 51.61650 -0.36918 5999 ft 240 kts 266°
2026-05-05 21:25 51.61493 -0.39582 5996 ft 240 kts 266°
2026-05-05 21:25 51.61335 -0.42260 6000 ft 240 kts 266°
2026-05-05 21:25 51.61176 -0.44933 5999 ft 240 kts 266°
2026-05-05 21:25 51.61016 -0.47606 5997 ft 240 kts 266°
2026-05-05 21:26 51.60855 -0.50282 5999 ft 240 kts 266°
2026-05-05 21:26 51.60694 -0.52960 6001 ft 241 kts 266°
2026-05-05 21:26 51.60532 -0.55640 5996 ft 241 kts 266°
2026-05-05 21:26 51.60369 -0.58317 6001 ft 240 kts 266°
2026-05-05 21:27 51.60207 -0.60994 6006 ft 240 kts 266°
2026-05-05 21:27 51.60044 -0.63669 6001 ft 240 kts 266°
2026-05-05 21:27 51.59880 -0.66341 5996 ft 240 kts 266°
2026-05-05 21:27 51.59716 -0.69015 6001 ft 240 kts 266°
2026-05-05 21:28 51.59535 -0.71684 5883 ft 240 kts 262°
2026-05-05 21:28 51.59001 -0.74247 5291 ft 254 kts 238°
2026-05-05 21:28 51.57673 -0.76115 4814 ft 255 kts 205°
2026-05-05 21:28 51.56044 -0.77077 4511 ft 244 kts 197°
2026-05-05 21:29 51.54457 -0.77838 4375 ft 231 kts 195°
2026-05-05 21:29 51.52971 -0.78543 4274 ft 216 kts 195°
2026-05-05 21:29 51.51570 -0.79206 4034 ft 205 kts 193°
2026-05-05 21:29 51.50188 -0.79330 3728 ft 199 kts 163°
2026-05-05 21:30 51.49057 -0.78207 3459 ft 190 kts 130°
2026-05-05 21:30 51.48234 -0.76588 3199 ft 185 kts 121°
2026-05-05 21:30 51.47773 -0.74717 3005 ft 178 kts 97°
2026-05-05 21:30 51.47683 -0.72838 2991 ft 162 kts 89°
2026-05-05 21:31 51.47675 -0.71046 2903 ft 160 kts 88°
2026-05-05 21:31 51.47678 -0.69268 2697 ft 159 kts 88°
2026-05-05 21:31 51.47682 -0.67490 2476 ft 159 kts 88°
2026-05-05 21:31 51.47687 -0.65724 2252 ft 158 kts 88°
2026-05-05 21:32 51.47693 -0.63972 2059 ft 155 kts 88°
2026-05-05 21:32 51.47698 -0.62294 1829 ft 145 kts 89°
2026-05-05 21:32 51.47703 -0.60740 1645 ft 133 kts 89°
2026-05-05 21:32 51.47709 -0.59285 1459 ft 129 kts 89°
2026-05-05 21:33 51.47714 -0.57839 1279 ft 131 kts 89°
2026-05-05 21:33 51.47720 -0.56383 1094 ft 130 kts 89°
2026-05-05 21:33 51.47725 -0.54931 914 ft 131 kts 88°
2026-05-05 21:33 51.47731 -0.53478 733 ft 131 kts 88°
2026-05-05 21:34 51.47736 -0.52019 564 ft 130 kts 88°
2026-05-05 21:34 51.47741 -0.50570 383 ft 130 kts 88°
2026-05-05 21:34 51.47742 -0.49624 256 ft 125 kts 88°
2026-05-05 21:34 51.47750 -0.48248 108 ft 120 kts 88°
2026-05-05 21:35 51.47759 -0.47069 97 ft 86 kts 92°
2026-05-05 21:35 51.47759 -0.46368 97 ft 39 kts 89°
2026-05-05 21:35 51.47760 -0.45979 94 ft 33 kts 89°
2026-05-05 21:35 51.47762 -0.45654 91 ft 21 kts 89°
2026-05-05 21:36 51.47710 -0.45477 96 ft 17 kts 158°
2026-05-05 21:36 51.47626 -0.45459 93 ft 8 kts 160°
2026-05-05 21:36 51.47602 -0.45391 93 ft 9 kts 104°
2026-05-05 21:36 51.47597 -0.45239 92 ft 16 kts 90°
2026-05-05 21:37 51.47598 -0.45068 92 ft 15 kts 90°
2026-05-05 21:37 51.47599 -0.44906 92 ft 14 kts 89°
2026-05-05 21:37 51.47600 -0.44730 92 ft 14 kts 93°
2026-05-05 21:37 51.47536 -0.44652 94 ft 12 kts 158°
2026-05-05 21:38 51.47461 -0.44562 95 ft 15 kts 169°
2026-05-05 21:38 51.47362 -0.44558 92 ft 14 kts 179°
2026-05-05 21:38 51.47267 -0.44557 95 ft 13 kts 179°
2026-05-05 21:38 51.47176 -0.44556 95 ft 13 kts 179°
2026-05-05 21:39 51.47089 -0.44555 95 ft 12 kts 180°
2026-05-05 21:39 51.46981 -0.44554 95 ft 16 kts 180°
2026-05-05 21:39 51.46868 -0.44552 94 ft 16 kts 179°
2026-05-05 21:39 51.46759 -0.44550 92 ft 15 kts 179°
2026-05-05 21:40 51.46678 -0.44590 95 ft 12 kts 240°
2026-05-05 21:40 51.46639 -0.44678 96 ft 8 kts 222°
2026-05-05 21:40 51.46564 -0.44786 95 ft 18 kts 221°
2026-05-05 21:40 51.46477 -0.44910 98 ft 16 kts 221°
2026-05-05 21:41 51.46390 -0.45033 93 ft 17 kts 221°
2026-05-05 21:41 51.46324 -0.45153 95 ft 13 kts 247°
2026-05-05 21:41 51.46316 -0.45295 96 ft 13 kts 269°
2026-05-05 21:41 51.46315 -0.45449 96 ft 17 kts 269°
2026-05-05 21:42 51.46321 -0.45632 95 ft 16 kts 275°
2026-05-05 21:42 51.46323 -0.45808 92 ft 15 kts 269°
2026-05-05 21:42 51.46323 -0.45975 94 ft 15 kts 270°
2026-05-05 21:42 51.46322 -0.46115 92 ft 9 kts 269°
2026-05-05 21:43 51.46309 -0.46164 94 ft 4 kts 211°
2026-05-05 21:43 51.46278 -0.46174 94 ft 6 kts 183°
2026-05-05 21:43 51.46253 -0.46174 96 ft 3 kts 180°
2026-05-05 21:43 51.46239 -0.46174 96 ft 0 kts 180°